Location: Zagreb
(45.8000°N, 16.0000°E)
Time: 15:07:54
(UTC+02:00)

Transit 2A - Pass Details

Date: 15 August 2022
Orbit: 601 x 956 km, 66.7° (Epoch: 25 September)

Event Time Altitude Azimuth Distance (km) Brightness Sun altitude
Rises 10:04:01 0° 158° (SSE) 3,156 9.7 41.2°
Reaches altitude 10° 10:08:02 10° 127° (SE) 2,151 9.5 41.9°
Maximum altitude 10:09:43 12° 106° (ESE) 2,003 9.3 42.1°
Drops below altitude 10° 10:11:21 10° 86° (E) 2,089 9.1 42.4°
Sets 10:15:05 0° 54° (NE) 2,941 9.3 42.9°
